EWG25 EDDH-EDDL

Flight info

Callsign EWG25
Flight time 0h 57m
Altitude 29000
Route IDEKO8C/05 IDEKO N850 ROBEG/N0447F280 DCT DENOL T851 HALME HALME1A
Aircraft A320/M-SDE3FGHIRWY/LB1

Departure

Time 2026-05-07 13:05
Airport Hamburg Helmut Schmidt Airport (EDDH)

Arrival

Time 2026-05-07 14:02
Airport Düsseldorf Airport (EDDL)
Time Latitude Longitude Altitude Speed Heading
2026-05-07 12:44 53.63245 10.00355 49 ft 0 kts 86°
2026-05-07 12:46 53.63245 10.00354 49 ft 0 kts 86°
2026-05-07 12:49 53.63245 10.00353 48 ft 0 kts 86°
2026-05-07 12:52 53.63245 10.00352 48 ft 0 kts 86°
2026-05-07 12:53 53.63244 10.00340 48 ft 2 kts 86°
2026-05-07 12:54 53.63243 10.00312 48 ft 2 kts 86°
2026-05-07 12:54 53.63242 10.00283 48 ft 2 kts 86°
2026-05-07 12:54 53.63241 10.00254 43 ft 2 kts 90°
2026-05-07 12:54 53.63243 10.00226 48 ft 2 kts 105°
2026-05-07 12:55 53.63249 10.00199 48 ft 2 kts 129°
2026-05-07 12:55 53.63260 10.00179 45 ft 2 kts 149°
2026-05-07 12:55 53.63270 10.00172 47 ft 0 kts 173°
2026-05-07 12:56 53.63243 10.00176 46 ft 12 kts 176°
2026-05-07 12:57 53.63141 10.00188 48 ft 14 kts 176°
2026-05-07 12:57 53.63051 10.00164 48 ft 14 kts 211°
2026-05-07 12:57 53.62959 10.00065 48 ft 11 kts 213°
2026-05-07 12:57 53.62927 10.00035 48 ft 4 kts 196°
2026-05-07 12:58 53.62869 10.00035 48 ft 13 kts 188°
2026-05-07 12:58 53.62801 9.99957 46 ft 12 kts 214°
2026-05-07 12:58 53.62726 9.99889 46 ft 13 kts 208°
2026-05-07 12:58 53.62655 9.99817 46 ft 11 kts 225°
2026-05-07 12:59 53.62636 9.99711 44 ft 9 kts 257°
2026-05-07 12:59 53.62620 9.99591 44 ft 17 kts 259°
2026-05-07 12:59 53.62595 9.99371 47 ft 19 kts 259°
2026-05-07 12:59 53.62570 9.99151 47 ft 20 kts 258°
2026-05-07 13:00 53.62552 9.99001 47 ft 19 kts 259°
2026-05-07 13:00 53.62513 9.98659 47 ft 23 kts 259°
2026-05-07 13:00 53.62485 9.98406 47 ft 21 kts 259°
2026-05-07 13:00 53.62455 9.98178 47 ft 20 kts 252°
2026-05-07 13:01 53.62365 9.97960 47 ft 24 kts 230°
2026-05-07 13:01 53.62264 9.97756 47 ft 21 kts 231°
2026-05-07 13:01 53.62196 9.97614 47 ft 12 kts 234°
2026-05-07 13:01 53.62179 9.97485 47 ft 11 kts 283°
2026-05-07 13:02 53.62208 9.97407 43 ft 1 kts 318°
2026-05-07 13:02 53.62214 9.97400 43 ft 2 kts 324°
2026-05-07 13:02 53.62242 9.97377 41 ft 10 kts 338°
2026-05-07 13:02 53.62324 9.97382 40 ft 13 kts 32°
2026-05-07 13:03 53.62339 9.97410 38 ft 0 kts 49°
2026-05-07 13:03 53.62340 9.97411 38 ft 1 kts 49°
2026-05-07 13:04 53.62427 9.97586 40 ft 53 kts 50°
2026-05-07 13:04 53.62799 9.98339 43 ft 112 kts 50°
2026-05-07 13:04 53.63405 9.99560 52 ft 157 kts 51°
2026-05-07 13:04 53.64123 10.01001 644 ft 161 kts 51°
2026-05-07 13:05 53.64850 10.02441 1462 ft 161 kts 50°
2026-05-07 13:05 53.65620 10.03953 1775 ft 184 kts 50°
2026-05-07 13:05 53.66515 10.05671 2109 ft 209 kts 50°
2026-05-07 13:05 53.67523 10.07613 2564 ft 231 kts 50°
2026-05-07 13:06 53.68573 10.09564 3682 ft 217 kts 40°
2026-05-07 13:06 53.69933 10.10557 4724 ft 219 kts
2026-05-07 13:06 53.71409 10.09952 5521 ft 229 kts 331°
2026-05-07 13:06 53.72542 10.07855 5879 ft 259 kts 303°
2026-05-07 13:07 53.73443 10.05084 6388 ft 277 kts 299°
2026-05-07 13:07 53.74298 10.02117 7129 ft 284 kts 296°
2026-05-07 13:07 53.74805 9.98863 7941 ft 291 kts 275°
2026-05-07 13:07 53.74664 9.95524 8832 ft 291 kts 257°
2026-05-07 13:08 53.73973 9.92298 9729 ft 292 kts 246°
2026-05-07 13:08 53.73165 9.89143 10483 ft 298 kts 246°
2026-05-07 13:08 53.72317 9.85789 10704 ft 322 kts 247°
2026-05-07 13:08 53.71412 9.82185 10883 ft 345 kts 247°
2026-05-07 13:09 53.70450 9.78361 11211 ft 360 kts 247°
2026-05-07 13:09 53.69461 9.74445 11844 ft 365 kts 247°
2026-05-07 13:09 53.68459 9.70489 12553 ft 368 kts 247°
2026-05-07 13:09 53.67431 9.66585 13238 ft 371 kts 242°
2026-05-07 13:10 53.65972 9.62972 13907 ft 375 kts 229°
2026-05-07 13:10 53.64039 9.60008 14513 ft 379 kts 216°
2026-05-07 13:10 53.61722 9.57871 15112 ft 382 kts 202°
2026-05-07 13:10 53.59142 9.56714 15690 ft 386 kts 188°
2026-05-07 13:11 53.56464 9.56191 16266 ft 389 kts 187°
2026-05-07 13:11 53.53770 9.55673 16834 ft 392 kts 188°
2026-05-07 13:11 53.51050 9.55144 17395 ft 394 kts 188°
2026-05-07 13:11 53.48318 9.54604 17937 ft 397 kts 188°
2026-05-07 13:12 53.45557 9.54055 18466 ft 400 kts 188°
2026-05-07 13:12 53.42787 9.53507 18943 ft 403 kts 188°
2026-05-07 13:12 53.40034 9.52963 19401 ft 405 kts 188°
2026-05-07 13:12 53.37235 9.52410 19897 ft 406 kts 188°
2026-05-07 13:13 53.34417 9.51856 20352 ft 409 kts 188°
2026-05-07 13:13 53.31583 9.51304 20812 ft 411 kts 188°
2026-05-07 13:13 53.28739 9.50752 21258 ft 413 kts 188°
2026-05-07 13:13 53.25874 9.50193 21717 ft 415 kts 188°
2026-05-07 13:14 53.22998 9.49627 22173 ft 417 kts 188°
2026-05-07 13:14 53.20107 9.49060 22599 ft 420 kts 188°
2026-05-07 13:14 53.17201 9.48493 23017 ft 422 kts 188°
2026-05-07 13:14 53.14276 9.47927 23426 ft 424 kts 188°
2026-05-07 13:15 53.11380 9.47368 23801 ft 426 kts 188°
2026-05-07 13:15 53.08429 9.46797 24143 ft 428 kts 188°
2026-05-07 13:15 53.05463 9.46224 24481 ft 430 kts 187°
2026-05-07 13:15 53.02480 9.45648 24805 ft 433 kts 187°
2026-05-07 13:16 52.99482 9.45072 25138 ft 434 kts 188°
2026-05-07 13:16 52.96475 9.44476 25466 ft 436 kts 188°
2026-05-07 13:16 52.93462 9.43839 25795 ft 438 kts 188°
2026-05-07 13:16 52.90428 9.43173 26096 ft 440 kts 188°
2026-05-07 13:17 52.87387 9.42499 26391 ft 443 kts 188°
2026-05-07 13:17 52.84326 9.41828 26647 ft 445 kts 188°
2026-05-07 13:17 52.81293 9.41173 26941 ft 446 kts 188°
2026-05-07 13:17 52.78203 9.40515 27204 ft 449 kts 188°
2026-05-07 13:18 52.75097 9.39858 27455 ft 451 kts 188°
2026-05-07 13:18 52.71978 9.39200 27743 ft 453 kts 188°
2026-05-07 13:18 52.68846 9.38538 28018 ft 454 kts 188°
2026-05-07 13:18 52.65707 9.37876 28357 ft 455 kts 188°
2026-05-07 13:19 52.62577 9.37215 28743 ft 454 kts 188°
2026-05-07 13:19 52.59446 9.36501 29022 ft 454 kts 189°
2026-05-07 13:19 52.53270 9.34874 29070 ft 452 kts 190°
2026-05-07 13:20 52.47070 9.33161 29073 ft 452 kts 190°
2026-05-07 13:20 52.40862 9.31503 29076 ft 452 kts 189°
2026-05-07 13:21 52.34660 9.29896 29080 ft 451 kts 189°
2026-05-07 13:21 52.28507 9.27976 29076 ft 449 kts 198°
2026-05-07 13:22 52.23028 9.23364 29071 ft 448 kts 218°
2026-05-07 13:22 52.18799 9.15997 29064 ft 446 kts 236°
2026-05-07 13:23 52.15320 9.07613 29066 ft 446 kts 236°
2026-05-07 13:23 52.11836 8.99285 29063 ft 445 kts 236°
2026-05-07 13:24 52.08341 8.90975 29065 ft 445 kts 236°
2026-05-07 13:24 52.04870 8.82738 29055 ft 445 kts 236°
2026-05-07 13:25 52.01360 8.74437 29038 ft 446 kts 236°
2026-05-07 13:25 51.98375 8.65652 29034 ft 446 kts 250°
2026-05-07 13:26 51.96901 8.55881 29042 ft 447 kts 258°
2026-05-07 13:26 51.95650 8.46013 29047 ft 447 kts 258°
2026-05-07 13:27 51.94367 8.36212 29054 ft 447 kts 258°
2026-05-07 13:27 51.93072 8.26370 29060 ft 447 kts 258°
2026-05-07 13:28 51.91783 8.16519 29060 ft 447 kts 258°
2026-05-07 13:28 51.91134 8.11591 28918 ft 448 kts 258°
2026-05-07 13:28 51.90482 8.06663 28551 ft 448 kts 258°
2026-05-07 13:29 51.89826 8.01718 27345 ft 452 kts 257°
2026-05-07 13:29 51.89162 7.96707 26144 ft 457 kts 257°
2026-05-07 13:29 51.88492 7.91656 24976 ft 462 kts 257°
2026-05-07 13:29 51.87826 7.86669 24286 ft 455 kts 257°
2026-05-07 13:30 51.87157 7.81691 23473 ft 451 kts 257°
2026-05-07 13:30 51.86491 7.76757 22667 ft 445 kts 257°
2026-05-07 13:30 51.85774 7.71921 21937 ft 439 kts 252°
2026-05-07 13:30 51.84538 7.67471 21223 ft 433 kts 237°
2026-05-07 13:31 51.82556 7.63869 20529 ft 429 kts 219°
2026-05-07 13:31 51.80129 7.61116 19866 ft 425 kts 214°
2026-05-07 13:31 51.77663 7.58526 19198 ft 421 kts 213°
2026-05-07 13:31 51.75210 7.55980 18551 ft 418 kts 213°
2026-05-07 13:32 51.72803 7.53489 17861 ft 415 kts 214°
2026-05-07 13:32 51.70385 7.50994 17132 ft 412 kts 214°
2026-05-07 13:32 51.67976 7.48523 16408 ft 409 kts 213°
2026-05-07 13:32 51.65585 7.46070 15715 ft 406 kts 213°
2026-05-07 13:33 51.63208 7.43630 15037 ft 404 kts 214°
2026-05-07 13:33 51.60883 7.41261 14367 ft 388 kts 213°
2026-05-07 13:33 51.58645 7.38995 13695 ft 372 kts 213°
2026-05-07 13:33 51.56499 7.36813 12970 ft 359 kts 213°
2026-05-07 13:34 51.54449 7.34729 12274 ft 347 kts 213°
2026-05-07 13:34 51.50483 7.30694 10901 ft 329 kts 214°
2026-05-07 13:34 51.48575 7.28733 10247 ft 325 kts 213°
2026-05-07 13:35 51.46661 7.26742 9554 ft 331 kts 214°
2026-05-07 13:35 51.44736 7.24742 8826 ft 326 kts 213°
2026-05-07 13:35 51.42853 7.22798 8123 ft 318 kts 213°
2026-05-07 13:35 51.41018 7.20905 7434 ft 311 kts 214°
2026-05-07 13:36 51.39824 7.19677 6983 ft 306 kts 213°
2026-05-07 13:36 51.38126 7.17923 6335 ft 301 kts 214°
2026-05-07 13:36 51.36387 7.16099 5625 ft 296 kts 217°
2026-05-07 13:36 51.34268 7.13426 4702 ft 290 kts 219°
2026-05-07 13:37 51.32698 7.11505 4390 ft 273 kts 218°
2026-05-07 13:37 51.31302 7.09682 4330 ft 247 kts 222°
2026-05-07 13:37 51.30068 7.07925 4274 ft 228 kts 223°
2026-05-07 13:37 51.28933 7.06305 4244 ft 210 kts 224°
2026-05-07 13:38 51.28226 7.05312 4226 ft 197 kts 223°
2026-05-07 13:38 51.27294 7.03813 4166 ft 187 kts 232°
2026-05-07 13:38 51.26392 7.02075 4109 ft 220 kts 233°
2026-05-07 13:38 51.25428 7.00166 4047 ft 218 kts 233°
2026-05-07 13:39 51.24486 6.98286 4001 ft 215 kts 233°
2026-05-07 13:39 51.23555 6.96410 3950 ft 216 kts 233°
2026-05-07 13:39 51.22623 6.94539 3896 ft 215 kts 233°
2026-05-07 13:39 51.21700 6.92661 3851 ft 215 kts 233°
2026-05-07 13:40 51.20727 6.90686 3788 ft 247 kts 234°
2026-05-07 13:40 51.19605 6.88385 3653 ft 271 kts 236°
2026-05-07 13:40 51.18485 6.85922 3528 ft 276 kts 236°
2026-05-07 13:40 51.17378 6.83434 3310 ft 273 kts 236°
2026-05-07 13:41 51.16324 6.81048 3267 ft 251 kts 237°
2026-05-07 13:41 51.15467 6.78779 3238 ft 228 kts 242°
2026-05-07 13:41 51.14742 6.76657 3204 ft 209 kts 244°
2026-05-07 13:41 51.14076 6.74726 3145 ft 190 kts 243°
2026-05-07 13:42 51.13450 6.72926 3051 ft 183 kts 244°
2026-05-07 13:42 51.13030 6.71106 3017 ft 175 kts 268°
2026-05-07 13:42 51.13250 6.69261 3004 ft 170 kts 299°
2026-05-07 13:42 51.13933 6.67744 3009 ft 169 kts 309°
2026-05-07 13:43 51.14648 6.66244 3005 ft 170 kts 309°
2026-05-07 13:43 51.15368 6.64733 3002 ft 172 kts 309°
2026-05-07 13:43 51.16085 6.63228 3004 ft 172 kts 310°
2026-05-07 13:43 51.16819 6.61726 2975 ft 173 kts 314°
2026-05-07 13:44 51.17755 6.60599 2830 ft 162 kts 336°
2026-05-07 13:44 51.18776 6.60133 2943 ft 148 kts 354°
2026-05-07 13:44 51.19783 6.60183 2680 ft 141 kts 11°
2026-05-07 13:44 51.20684 6.60702 2498 ft 139 kts 28°
2026-05-07 13:45 51.21447 6.61633 2312 ft 139 kts 45°
2026-05-07 13:45 51.22051 6.62848 2137 ft 140 kts 50°
2026-05-07 13:45 51.22643 6.64082 1927 ft 141 kts 51°
2026-05-07 13:45 51.23237 6.65321 1754 ft 140 kts 50°
2026-05-07 13:46 51.23827 6.66552 1559 ft 139 kts 50°
2026-05-07 13:46 51.24415 6.67780 1370 ft 140 kts 51°
2026-05-07 13:46 51.25006 6.69014 1177 ft 140 kts 49°
2026-05-07 13:46 51.25596 6.70249 993 ft 138 kts 50°
2026-05-07 13:47 51.26173 6.71454 808 ft 137 kts 50°
2026-05-07 13:47 51.26744 6.72666 649 ft 136 kts 50°
2026-05-07 13:47 51.27330 6.73869 462 ft 135 kts 51°
2026-05-07 13:47 51.27913 6.75087 246 ft 138 kts 51°
2026-05-07 13:48 51.28480 6.76293 149 ft 131 kts 49°
2026-05-07 13:48 51.28971 6.77312 126 ft 102 kts 53°
2026-05-07 13:48 51.29459 6.78344 159 ft 146 kts 50°
2026-05-07 13:48 51.30103 6.79738 799 ft 161 kts 53°
2026-05-07 13:49 51.30749 6.81264 1623 ft 173 kts 53°
2026-05-07 13:49 51.31463 6.82925 2359 ft 192 kts 53°
2026-05-07 13:49 51.32270 6.84737 2788 ft 213 kts 52°
2026-05-07 13:49 51.33150 6.86691 3523 ft 219 kts 52°
2026-05-07 13:50 51.34054 6.88680 4335 ft 223 kts 52°
2026-05-07 13:50 51.34977 6.90714 4856 ft 228 kts 50°
2026-05-07 13:50 51.36164 6.92300 4971 ft 223 kts 20°
2026-05-07 13:50 51.37680 6.92582 4999 ft 222 kts 348°
2026-05-07 13:51 51.39035 6.91459 5004 ft 224 kts 317°
2026-05-07 13:51 51.40123 6.89680 4997 ft 224 kts 315°
2026-05-07 13:51 51.41201 6.87867 5000 ft 226 kts 314°
2026-05-07 13:51 51.42266 6.86065 5002 ft 224 kts 314°
2026-05-07 13:52 51.43328 6.84241 5001 ft 224 kts 314°
2026-05-07 13:52 51.44387 6.82402 5001 ft 224 kts 311°
2026-05-07 13:52 51.45180 6.80256 4999 ft 226 kts 291°
2026-05-07 13:52 51.45364 6.77756 4999 ft 230 kts 263°
2026-05-07 13:53 51.44748 6.75399 4997 ft 234 kts 232°
2026-05-07 13:53 51.43445 6.73870 4997 ft 236 kts 199°
2026-05-07 13:53 51.41815 6.73607 4998 ft 238 kts 174°
2026-05-07 13:53 51.40173 6.73832 4997 ft 237 kts 175°
2026-05-07 13:54 51.38574 6.73536 4993 ft 237 kts 204°
2026-05-07 13:54 51.37216 6.72103 4991 ft 234 kts 228°
2026-05-07 13:54 51.36151 6.70136 4993 ft 235 kts 229°
2026-05-07 13:54 51.35044 6.68211 4995 ft 235 kts 229°
2026-05-07 13:55 51.33924 6.66297 5000 ft 236 kts 229°
2026-05-07 13:55 51.32797 6.64383 5009 ft 236 kts 228°
2026-05-07 13:55 51.31683 6.62475 5007 ft 235 kts 228°
2026-05-07 13:55 51.30559 6.60556 4887 ft 238 kts 228°
2026-05-07 13:56 51.29437 6.58620 4457 ft 236 kts 228°
2026-05-07 13:56 51.28343 6.56740 4051 ft 233 kts 228°
2026-05-07 13:56 51.27246 6.54861 3636 ft 230 kts 229°
2026-05-07 13:56 51.26157 6.53005 3245 ft 229 kts 228°
2026-05-07 13:57 51.25074 6.51169 2993 ft 221 kts 227°
2026-05-07 13:57 51.23886 6.49826 2995 ft 203 kts 195°
2026-05-07 13:57 51.22532 6.49855 3030 ft 196 kts 158°
2026-05-07 13:57 51.21454 6.51026 3012 ft 179 kts 128°
2026-05-07 13:58 51.20773 6.52697 3019 ft 186 kts 119°
2026-05-07 13:58 51.20137 6.54521 2991 ft 189 kts 108°
2026-05-07 13:58 51.19903 6.56550 2899 ft 186 kts 87°
2026-05-07 13:58 51.20144 6.58550 2733 ft 184 kts 65°
2026-05-07 13:59 51.20801 6.60237 2520 ft 183 kts 50°
2026-05-07 13:59 51.21613 6.61925 2266 ft 197 kts 50°
2026-05-07 13:59 51.22437 6.63648 2011 ft 195 kts 51°
2026-05-07 13:59 51.23248 6.65343 1747 ft 186 kts 51°
2026-05-07 14:00 51.24003 6.66920 1490 ft 170 kts 51°
2026-05-07 14:00 51.24682 6.68341 1286 ft 154 kts 51°
2026-05-07 14:00 51.25303 6.69640 1080 ft 144 kts 50°
2026-05-07 14:00 51.25896 6.70884 894 ft 140 kts 52°
2026-05-07 14:01 51.26481 6.72112 705 ft 139 kts 48°
2026-05-07 14:01 51.27069 6.73316 557 ft 138 kts 50°
2026-05-07 14:01 51.27644 6.74523 328 ft 136 kts 51°
2026-05-07 14:01 51.28200 6.75702 145 ft 131 kts 50°
2026-05-07 14:02 51.28676 6.76697 126 ft 90 kts 52°
2026-05-07 14:02 51.28903 6.77176 125 ft 43 kts 53°
2026-05-07 14:02 51.29018 6.77423 126 ft 19 kts 65°
2026-05-07 14:02 51.29013 6.77547 126 ft 3 kts 123°
2026-05-07 14:03 51.28990 6.77585 125 ft 4 kts 139°
2026-05-07 14:03 51.28974 6.77606 127 ft 2 kts 140°
2026-05-07 14:03 51.28971 6.77610 127 ft 0 kts 139°
2026-05-07 14:03 51.28945 6.77640 126 ft 11 kts 153°
2026-05-07 14:04 51.28873 6.77578 127 ft 15 kts 232°
2026-05-07 14:04 51.28804 6.77436 127 ft 17 kts 232°
2026-05-07 14:04 51.28731 6.77284 125 ft 18 kts 232°
2026-05-07 14:04 51.28635 6.77082 128 ft 25 kts 233°
2026-05-07 14:05 51.28530 6.76861 125 ft 23 kts 233°
2026-05-07 14:05 51.28462 6.76717 124 ft 14 kts 232°
2026-05-07 14:05 51.28382 6.76697 125 ft 12 kts 166°
2026-05-07 14:05 51.28318 6.76607 123 ft 17 kts 233°
2026-05-07 14:06 51.28250 6.76463 125 ft 15 kts 233°
2026-05-07 14:06 51.28169 6.76425 126 ft 11 kts 181°
2026-05-07 14:06 51.28092 6.76393 125 ft 11 kts 200°
2026-05-07 14:06 51.28047 6.76371 124 ft 2 kts 197°
2026-05-07 14:07 51.28043 6.76369 125 ft 0 kts 197°
2026-05-07 14:16 51.28044 6.76369 128 ft 0 kts 197°
2026-05-07 14:20 51.28045 6.76370 123 ft 2 kts 197°
2026-05-07 14:20 51.28062 6.76378 123 ft 3 kts 197°